STARLINK-32862, 62864

Orbit data source: Space-Track

STARLINK-32862, 62864 is a payload satellite owned by SpaceX/Seattle (US) in LEO that was launched on Sat, 01 Feb 2025 UTC via an FALCON 9 launch vehicle from the Air Force Western Test Range (AFWTR). Payload-class satellites include a variety of spacecraft equipped with specific instruments for various scientific and technological missions. These include communications satellites like Starlink; space stations such as the ISS; scientific satellites like the Hubble; Earth observation satellites from companies like Planet Labs, Umbra, and HawkEye 360; GPS; miniature CubeSats for education and research; and military/defense satellites.

Loading next visibility...
Identifier
62864, 2025-022L
Orbit
LEO
Country
Flag of USUS
Related business
Manufacturer
SpaceX/Seattle
Mission
Operational Commercial Communications
Bus & Motor
STARLINK V2M, Unknown motor
Mass
730 kg wet, ~700 kg dry
Launch date (UTC)
2025-02-01 (9 months ago)
Launch vehicle
FALCON 9
Launch site
Air Force Western Test Range (AFWTR)
Object type
Payload
Rocket body
Debris
Shape & HBR
Box + 2 Pan, 17.7 m
Radar Cross Section
33.884 m², Large (>1 m²)

Expand to show TLE details & history
Last TLE update: 14 hours ago

TLE from 14 hours ago
0 STARLINK-32862
1 62864U 25022L   25298.59736793  .00013972  00000-0  48273-3 0  9991
2 62864  53.1614  37.3364 0001082  79.1976 280.9146 15.30216813 41212
Epoch: 2025-10-25T14:20Z
TLE epoch observation values (Epoch: 2025-10-25T14:20:12.589Z)
Latitude
-0.00005°
Longitude
148.05828°
Altitude
475.924 km
Speed
7.629 km/s
True Right ascension
02h 29m 20s
True Declination
0° 00' 00"
Sunlit
Object was in full shadow at epoch
Visualization orbit readout
Latitude
Unknown
Longitude
Unknown
Altitude
Unknown
Speed
Unknown
Apparent Right ascension
Unknown
Apparent Declination
Unknown
Sunlit
N/A
Visualization observer readout
Local Sidereal Time
23:50:27
Azimuth
Unknown
Elevation
Unknown
Doppler factor
Unknown
Orbital elements
Apogee altitude
476.163 km
Perigee altitude
474.68 km
Semi-major axis
6,853.558 km
Eccentricity
0.00011
Inclination
53.1614°
RAAN
37.3364°
Arg. of periapsis
79.1976°
True anomaly
280.90243°
Mean anomaly
280.9146°
Eccentric anomaly
280.90851°
Mean motion
3.82533 °/min
Orbital period
94.11 mins
BSTAR
0.00048273
Loading maneuver chart data...
Computing Atmospheric mass density...
Loading historical data...
Loading historical data...
Loading historical data...
Loading historical data...
Loading historical data...
Loading historical data...
Loading historical data...

Documentation

Showing up to 5 results
|